CO-66
1 32791U 08021J 12214.58730570 +.00001245 +00000-0 +15738-3 0 03610
2 32791 097.7967 274.6197 0014100 270.9433 089.0214 14.83545812230470
RS-30
1 32953U 08025A 12215.65101180 .00000010 00000-0 00000+0 0 171
2 32953 082.5010 266.2472 0018192 202.7122 157.3153 12.43026128190336
PHARMSAT
1 35002U 09028B 12215.86735703 .00503214 12552-3 64137-3 0 368
2 35002 040.4482 124.4247 0012509 249.8177 110.1157 16.06275110181772
METEOR-M
1 35865U 09049A 12215.66373244 -.00000029 00000-0 63180-5 0 6470
2 35865 098.6512 269.1095 0001722 290.7211 069.3779 14.21866346149204
RS-38
1 35869U 09049E 12215.67795319 -.00000004 00000-0 17880-4 0 6542
2 35869 098.6467 269.1116 0003838 283.0176 077.0579 14.22080162149227
JUGNU
1 37839U 11058B 12215.66855132 .00000619 00000-0 19019-3 0 1982
2 37839 019.9628 076.6356 0019429 016.1827 343.9190 14.12070372 41821
SRMSAT
1 37841U 11058D 12215.71556178 .00000264 00000-0 00000+0 0 1981
2 37841 019.9711 082.1471 0011852 338.9053 021.0881 14.10152275 41760
RAX-2
1 37853U 11061D 12215.76004671 .00003200 00000-0 26015-3 0 2464
2 37853 101.7106 277.1584 0246206 218.1782 140.1745 14.80274703 41280
AUBIESAT
1 37854U 11061E 12214.89154877 +.00003204 +00000-0 +25643-3 0 02552
2 37854 101.7114 276.1984 0247238 219.6684 138.6203 14.80668086041154
HRBE
1 37855U 11061F 12214.84226442 +.00002553 +00000-0 +20698-3 0 02502
2 37855 101.7118 276.0734 0247949 220.0628 138.2032 14.80509289041148
RS-39
1 38051U 11062C 12215.73803604 .00009592 00000-0 39172-3 0 5715
2 38051 051.6356 297.9020 0013900 202.6990 301.9069 15.24957299 29074
E-STAR
1 38079U 12006C 12215.42880991 .00029218 00000-0 70864-3 0 3981
2 38079 069.4890 209.7797 0732534 189.6248 169.0130 14.17545081 24134
GOLIAT
1 38085U 12006J 12215.38235746 .00029524 00000-0 70899-3 0 3691
2 38085 069.4875 210.3122 0738288 189.9680 168.6087 14.16519567 24112
HORYU-2
1 38340U 12025D 12215.45240283 .00000825 00000-0 14570-3 0 779
2 38340 098.1748 155.2916 0013075 177.8031 182.3290 14.70063795 11277
